Погода в Дзержинском

Россия / Приморский край     44°05′56″N   131°45′15″E
темп.,
°C
ветер,
м/с
пор.,
м/с
влажн.,
%
обл.,
%
осадки,
мм/ч
давл.,
гПа
погр.,
м
10 мая, пн
пн1001:00+8сз4886100 0.1 1006400
04:00+8сз3587100 0.1 1007172
07:00+8зсз2585100 0.0 1009227
10:00+10сз4572100 0.0 1011951
13:00+11зсз4573100 0.1 1012926
16:00+11с2370100 0.3 1011730
19:00+9ссв358359 0.3 1013388
22:00+6ссв22924 0.3 101433
11 мая, вт
вт1101:00+5з11925 0.0 101510
04:00+5сз11945 0.0 101510
07:00+6ссз11905 0.0 101727
10:00+11ссв236832 0.0 1018865
13:00+15ссв345127 0.0 10171542
16:00+17в32471 0.0 10161460
19:00+15вюв45581 0.0 1016593
22:00+9ююв51177100 0.0 1018303
12 мая, ср
ср1201:00+7ю71586100 0.0 1018527
04:00+7ю8168698 0.0 1017680
07:00+7ю81682100 0.0 1017781
10:00+9ю91777100 0.0 1016933
13:00+10ю101678100 0.0 10151061
16:00+8ю81591100 2.8 1015685
19:00+8ю91792100 2.9 1014703
22:00+8ю7149374 3.6 1015590
13 мая, чт
чт1301:00+8ю7119594 0.0 1014468
04:00+7ю7119664 0.0 1014315
07:00+8ю5109647 0.0 1015294
10:00+13ю56740 0.0 1015499
13:00+19ююв56540 0.0 1013858
16:00+19ююв895892 0.0 1012514
19:00+15ююв61273100 0.0 1012330
22:00+11ююв5983100 0.0 1013232
14 мая, пт
пт1401:00+10ююв5983100 0.0 1013215
04:00+10ююв4781100 0.0 1013184
07:00+10ююв3694100 1.8 1013189
10:00+10юв3993100 4.4 1012338
13:00+14ююв81469100 0.0 1010786
16:00+14ююв91472100 0.0 1008537
19:00+13ююв101681100 0.0 1006540
22:00+12ю81592100 0.0 1008545